Погода Мирный

Погода Мирный : погода сейчас, прогноз погоды и архив. Всё, что Вы хотите узнать о погоде Мирный!

Хотите узнать прогноз погоды Мирный? Тогда Вам сюда: Погода Мирный

Поиск расширенной информации на нашем сайте:

Другие новости

Новости СМИ2

Главная страница сайта

Новости сайта

03.07.2017

Напоминаем, что на нашем специализированном сайте Метеоцентр.Азия вы можете получить высокодетализированные автоматические прогнозы погоды по пунктам России, СНГ и мира в авиационном формате (включающие направление и скорость ветра, видимость, явления погоды, количество и форму облачности, нижнюю и верхнюю границу облачности).


Погода Мирный - сегодня

Время (UTC), дата Ветер
(°,м/с) 
Видим.   Явления Облачность Т
(°С)
Тd
(°С)
f(%) Тe
(°С)
Pmin
(гПа)
dP
(гПа)
Po
(мм)
O2
(г/м3)
Тmin Tmax R s Состояние
почвы
09 16.04.18 220 (ЮЗ) 20000 м    10/5 1260 м верхняя 
[Sc|Ci fib]
+3.1 -12.7 30 +1  1006.1  -0.2  722  289           
12 16.04.18 260 (З) 3{10}  20000 м    10/4 600 м кучево-дожд., средняя, верхняя 
[Cb cap|Ac trans|Ci fib]
+0.7 -7.4 55 -1  1006.9  0.5  722  291    +4.1       
15 16.04.18 210 (ЮЗ) 20000 м    10/0 средняя 
[Ac As]
-3.2 -6.3 79 -4  1007.8  0.2  723  295           
18 16.04.18 210 (ЮЗ) 20000 м    10/3 1000 м верхняя 
[Sc|Ci fib]
-4.6 -7 83 -6  1007.6  -0.4  722  297           
00 17.04.18 200 (Ю) 20000 м    6/0 средняя, верхняя 
[Ac trans|Ci fib]
-2.4 -5.7 78 -3  1006.6  -0.4  722  294  -6.9      28  равномерный
мокрый или
старый снег
100% 
03 17.04.18 220 (ЮЗ) 20000 м    8/8 1170 м 
[Cu med, cong]
+2.3 -4.8 59 1005  -0.8  721  289           
06 17.04.18 240 (ЮЗ) 20000 м    8/8 600 м кучево-дожд. 
[Cb cap]
+4.6 -5.4 48 +2  1003.6  -1  720  286           
09 17.04.18 230 (ЮЗ) 20000 м    6/6 1000 м 
[Sc diur, vesp]
+5.8 -5.6 44 +6  1002.8  -0.6  720  285           
12 17.04.18 160 (Ю) 20000 м    10/4 1000 м верхняя 
[Sc|Ci fib]
+2.6 -5.1 57 +1  1002.4  -0.9  719  288    +6       
00 18.04.18 190 (Ю) 20000 м  {ливн. осадки}  10/3 1000 м средняя, верхняя 
[Sc|Ac trans|Cs]
+0.9 -1.1 86 -1  994.3  -1.6  713  287  -0.6    26  равномерный
мокрый или
старый снег
100% 
03 18.04.18 230 (ЮЗ) 6-12{14}  20000 м  в посл. час ливневой снег  10/6 930 м кучево-дожд., верхняя 
[Cb cap|Ci fib]
+1.6 -3.2 70 -2  996.7  2.2  715  287  -0.8         
09 18.04.18 210 (ЮЗ) 4{11}  20000 м    10/6 600 м кучево-дожд., средняя 
[Cb cap|Ac As]
+1.4 -11.3 38 -1  996.9  -0.1  715  288           
12 18.04.18 240 (ЮЗ) 6{12}  4000 м  слаб. ливневой снег  10/6 500 м кучево-дожд., средняя 
[Cb cap|Ac As]
-1.1 -5.7 71 -5  998.4  1.1  716  290    +3.1  0.0     
18 18.04.18 210 (ЮЗ) 20000 м  {ливн. осадки}  10/4 1000 м верхняя 
[Sc|Ci fib]
-6.6 -10.7 73 -10  1001  717  297           
00 19.04.18 260 (З) 8-12{14}  20000 м  позёмок{ливн. осадки}  10/3 300 м верхняя 
[St|Ci fib]
-4.1 -9.1 68 -9  1002.1  2.1  718  295  -7.4    24  равномерный
мокрый или
старый снег
100% 
12 19.04.18 260 (З) 6-10{15}  20000 м    10/3 1500 м верхняя 
[Sc diur, vesp|Ci fib]
-3.6 -15.1 40 -8  1009.7  1.4  724  297    -0.7       
15 19.04.18 250 (З) 4{10}  20000 м    5/0 верхняя 
[Ci fib]
-6.3 -15.7 47 -10  1011.7  1.5  725  300           
18 19.04.18 240 (ЮЗ) 20000 м    3/0 верхняя 
[Ci fib]
-9.9 -17.1 56 -13  1013.5  0.9  726  305           
21 19.04.18 240 (ЮЗ) 20000 м    4/0 верхняя 
[Ci fib]
-11.8 -18 60 -15  1014.3  0.5  726  307           
12 20.04.18 260 (З) 3{11}  20000 м    10/0 средняя, верхняя 
[Ac trans|Ci fib]
-3.1 -14.7 40 -5  1017.5  730  299    -2.4       
15 20.04.18 250 (З) 20000 м    10/0 верхняя 
[Ci fib]
-6.3 -15 50 -9  1018.5  0.5  730  302           
18 20.04.18 240 (ЮЗ) 20000 м    10/0 верхняя 
[Ci fib]
-9.2 -14.8 64 -12  1019.6  0.6  730  306           
21 20.04.18 220 (ЮЗ) 20000 м    10/0 средняя, верхняя 
[Ac trans|Ci fib]
-9.6 -14.8 66 -11  1020  0.2  731  306           
00 21.04.18 220 (ЮЗ) 20000 м    10/0 средняя, верхняя 
[Ac trans|Ci fib]
-4.5 -14.3 46 -6  1019.1  731  300  -10.8      23  равномерный
мокрый или
старый снег
100% 
09 21.04.18 230 (ЮЗ) 5{10}  20000 м    10/4 1000 м средняя, верхняя 
[Sc|Ac trans|Ci fib]
+3.4 -8.7 41 +1  1016.4  -0.5  730  291           
Время (UTC), дата Ветер
(°,м/с) 
Видим.   Явления Облачность Т
(°С)
Тd
(°С)
f(%) Тe
(°С)
Pmin
(гПа)
dP
(гПа)
Po
(мм)
O2
(г/м3)
Тmin Tmax R s Состояние
почвы

Для получения пояснительной информации подведите курсор к названию столбца.

ПОГОДА Мирный - архив

Всё, что Вы хотите узнать о погоде Мирный - удобно и подробно!

Выберите нужную дату (начиная с 1 января 2015* года) и нажмите кнопку "Найти".
Будут отображены архивные сводки погоды по пункту Мирный, начиная с указанной даты.


Отображать данные в формате CSV (для использования в таблицах Excel)


Внимание! Наш архив погоды предназначен исключительно для личного некоммерческого использования в познавательных целях. Если Вам необходимы официальные справки о состоянии погоды (для производственных, юридических, коммерческих и т.п. целей), обращайтесь в органы Росгидромета.

*Примечание: данная дата относится к архиву по метеостанциям СССР (Россия, СНГ, Балтия).
Архив по метеостанциям Зарубежной Европы и Азии (кроме Китая) хранится 10 дней, по другим регионам земного шара (Китай, Африка, Америка, Австралия, Океания) - 1 день.

Мирный - район местоположения метеостанции


Название, широта, долгота, высота метеостанции:
Мирный 62.5°ш. 114.0°д. 352 м над ур. моря [Российская Федерация]

Дополнительная информация

В oтличие oт бoльшинства пoгoдных сайтoв мы публикуем пoдрoбную метеoинфoрмацию в детальнoм прoфессиoнальнoм фoрмате.

Характеристики температуры и влажнoсти вoздуха измеряются на высoте 2 м в тени вдали oт зданий и деревьев.
Скoрoсть ветра измеряется на высoте 10 м (на урoвне рoста челoвека скoрoсть ветра ниже в 1.5-2 раза). Если метеoстанция нахoдится в гoрoде или в лесу, тo скoрoсть ветра занижена на 2-4 м/с пo сравнению с oткрытым местoм. Скoрoсть ветра над акватoриями крупных рек и oзёр, а также на вершинах хoлмoв на 2-5 м/с выше, чем в oбычных услoвиях.
Атмoсфернoе давление в разных тoчках местнoсти мoжет значительнo oтличаться oт давления на метеoстанции, в зависимoсти oт услoвий рельефа (при пoдъёме на 10 м давление пoнижается примернo на 1 мм рт.ст.).